Wind_Gust
15 14 15 15 15 15 16 16 15 15 15 15 16 16 16 17 18 19 19 19 19 20 21 21 21 22 22 23 24 23 22 21 22 18 16 29 10 11 14 14 17 15 10 5 10 10 12 12 14 14 15 10 12 14 15 18 16 10 14 12 14 16 15 14 6 8 5 9 6 10 4 8 8 13 6 4 8 11 11 22 23 21 15 19 21 22 24 25
15 15 15 15 16 16 16 16 17 16 16 15 16 16 16 17 18 19 20 20 20 21 21 21 22 22 23 23 24 24 21 18 21 21 33 22 14 13 12 14 15 14 8 8 13 14 13 14 15 15 15 13 9 15 11 17 14 12 10 11 20 12 18 6 5 4 6 3 8 3 9 9 6 5 8 9 3 7 13 22 25 22 19 19 19 21 21 20
15 15 15 15 16 16 16 17 17 17 17 16 16 16 17 17 18 19 20 20 20 21 22 22 23 23 24 23 23 20 21 19 18 23 28 26 26 13 14 14 14 14 14 14 15 14 16 14 17 16 13 13 12 16 16 18 17 11 8 14 17 18 21 22 11 11 11 8 11 10 5 6 4 8 3 5 9 11 8 22 19 22 17 16 17 16 19 19
15 15 15 16 16 16 17 17 18 18 17 17 16 16 16 17 18 18 19 20 20 21 21 22 23 23 23 23 21 21 17 19 16 13 9 18 22 17 14 13 13 12 8 12 14 17 14 16 13 16 14 13 12 18 16 11 19 12 13 20 18 11 15 10 6 10 10 9 11 9 10 11 7 5 9 11 12 8 19 16 20 16 18 19 19 18 16 16
15 16 16 16 17 17 17 17 18 19 19 18 16 16 16 17 18 19 20 20 20 20 21 22 22 23 24 23 21 17 16 8 10 8 5 12 18 17 14 14 13 11 12 9 12 18 19 18 17 14 13 13 15 11 14 13 18 8 17 20 18 17 17 10 12 9 11 8 2 4 7 11 8 6 5 6 12 13 11 22 23 21 19 21 19 17 14 14
16 16 16 17 17 17 18 18 18 19 19 19 17 16 16 16 17 19 20 21 20 21 21 22 22 22 24 24 22 14 8 9 8 11 9 9 14 14 12 11 11 8 9 10 13 13 14 15 16 13 13 10 11 13 9 14 10 16 13 12 10 12 13 12 7 9 4 7 4 7 6 11 5 8 7 7 8 7 22 19 22 19 16 14 14 15 11 14
15 16 17 17 17 18 18 19 19 19 20 20 19 17 17 17 17 19 20 21 21 21 21 22 22 23 22 22 19 11 11 26 14 7 11 8 10 12 13 11 9 7 8 12 15 16 12 14 13 10 11 12 13 22 17 15 14 13 14 7 12 11 15 12 16 8 7 6 4 6 6 8 7 5 6 8 12 9 16 23 21 19 18 20 20 12 16 15
16 16 17 18 18 19 18 19 20 19 20 21 19 18 18 18 17 19 20 21 21 21 21 21 21 22 20 19 14 11 14 21 22 12 10 9 11 14 13 9 10 9 11 14 13 16 14 14 14 11 13 13 10 18 11 13 11 14 19 12 16 15 12 8 6 5 3 4 3 7 9 9 6 6 6 14 8 15 19 18 19 17 14 16 14 14 14 14
16 17 17 17 18 19 19 19 20 20 21 21 21 18 18 17 18 18 20 21 22 21 22 22 21 19 16 13 10 14 17 24 19 15 15 13 12 13 14 14 11 12 13 13 15 15 12 12 15 13 13 18 16 18 9 12 15 11 10 8 9 12 8 7 9 8 4 3 2 5 6 7 10 11 12 12 8 9 23 19 19 18 18 17 15 14 16 15
16 17 18 18 18 19 20 20 20 20 21 21 21 19 18 18 18 19 20 22 22 21 22 22 20 17 16 12 12 9 15 20 16 17 17 16 15 13 13 11 15 14 14 13 14 15 16 12 13 9 16 20 14 16 20 13 12 14 13 14 15 13 12 8 7 8 8 7 6 11 7 11 11 11 13 8 11 9 23 21 18 22 19 15 14 13 12 16
16 17 18 18 19 19 20 21 20 21 22 21 21 20 19 19 18 20 21 21 21 22 23 21 17 14 13 11 11 16 13 12 15 16 18 15 15 14 14 14 15 18 15 14 16 15 15 17 11 11 13 15 7 11 12 12 7 10 3 8 10 8 8 8 10 10 2 6 3 5 10 7 10 7 10 11 12 15 18 22 20 18 18 16 15 13 11 12
16 17 17 18 19 20 20 21 21 21 22 22 22 21 19 19 20 20 21 21 22 22 21 16 11 13 13 14 14 27 16 8 18 16 17 16 14 15 12 13 16 16 18 16 16 16 17 13 9 8 12 9 11 9 11 12 16 11 9 13 7 7 16 9 14 11 4 11 5 5 9 10 10 14 14 13 9 11 14 24 20 21 18 15 14 14 10 11
16 17 18 18 19 20 21 22 22 22 22 23 23 21 20 20 20 21 22 22 19 20 18 15 10 11 10 10 23 33 27 22 16 13 14 13 11 11 13 12 18 17 18 17 14 10 6 6 6 11 11 13 9 13 9 16 10 11 10 8 10 10 15 14 14 13 11 13 7 9 12 11 14 14 16 13 12 13 8 25 20 21 18 16 14 13 11 9
16 17 18 19 19 20 22 22 23 23 23 23 23 23 21 20 21 21 21 22 23 20 18 13 12 12 10 18 20 13 15 22 20 13 15 13 13 14 13 12 17 18 17 18 14 6 5 6 4 10 10 14 16 14 21 12 7 6 7 11 12 6 22 16 19 15 17 14 18 10 7 15 10 11 12 14 15 13 12 19 22 16 14 17 16 15 13 10
17 16 17 19 20 21 22 23 23 23 23 23 25 23 22 22 22 23 23 21 19 15 13 7 11 9 8 25 18 26 29 21 17 12 10 15 15 15 15 13 13 14 14 8 11 4 6 9 5 10 12 12 14 14 13 14 7 10 9 11 7 10 24 17 17 17 24 15 14 16 9 20 13 16 19 13 17 18 10 20 19 18 15 13 15 13 12 8
17 17 17 19 20 21 22 23 24 24 24 24 25 25 24 24 22 21 22 19 19 15 14 9 15 15 12 25 18 10 9 13 13 10 10 12 16 15 13 11 8 9 4 6 5 7 3 4 9 8 14 14 14 8 10 11 10 12 9 5 11 12 24 17 20 16 25 14 16 18 11 12 13 16 18 17 25 25 12 20 21 16 12 13 10 9 9 8
17 18 18 18 20 21 22 23 23 24 24 24 26 25 25 25 23 20 19 17 15 13 12 12 10 16 7 11 16 10 22 20 11 14 12 14 14 14 14 10 12 10 6 5 8 5 4 10 5 11 11 14 8 10 7 10 10 12 13 17 14 15 11 18 16 24 24 9 13 10 9 13 18 23 23 22 27 22 13 17 22 20 19 17 13 12 12 9
18 18 18 19 21 20 22 23 23 24 25 24 24 25 31 24 18 13 16 13 15 14 16 18 14 10 32 26 17 20 19 14 17 15 13 13 14 12 13 16 8 11 10 11 10 13 9 10 8 8 6 9 11 9 15 13 15 13 9 13 15 15 16 12 12 10 17 12 15 10 13 13 16 15 14 4 19 12 6 9 21 23 19 15 12 13 11 12
18 18 19 19 20 21 22 23 23 24 23 23 25 26 26 16 12 10 13 13 10 5 7 17 14 15 7 11 28 20 19 17 14 13 17 17 15 14 15 11 9 12 13 10 12 14 12 9 6 7 10 9 14 15 13 14 16 17 15 19 16 12 12 14 17 20 17 10 12 13 11 13 15 16 7 3 11 13 7 9 15 20 20 19 16 12 11 11
18 18 18 19 20 21 22 22 22 24 22 21 22 22 7 6 6 7 10 15 20 18 13 11 28 15 20 20 14 20 15 18 17 17 14 15 15 13 15 15 13 13 13 14 12 18 10 10 11 12 12 12 13 17 16 17 18 20 19 13 7 13 17 20 5 25 12 15 13 14 11 9 6 9 10 4 4 10 15 15 11 17 18 23 22 20 20 19
19 18 18 19 21 22 22 21 21 19 20 19 18 13 9 9 13 9 10 20 26 25 29 23 23 24 24 20 16 17 27 14 12 17 17 14 12 10 17 13 15 12 13 13 14 14 13 11 13 12 16 17 15 14 14 17 17 18 15 12 11 15 16 12 13 19 7 11 4 7 8 6 9 10 15 16 11 6 8 10 13 13 20 24 25 19 21 15
19 19 19 20 21 23 23 22 20 20 16 16 13 13 14 17 12 11 8 19 19 30 29 27 21 26 30 28 27 19 11 19 15 16 17 18 17 18 14 17 16 17 12 14 13 12 14 16 14 17 17 17 17 12 14 18 15 13 9 9 9 12 18 15 11 19 5 4 6 4 5 5 7 8 11 14 10 11 9 14 10 12 21 21 20 17 11 13
18 19 19 20 21 23 23 24 19 19 21 13 15 15 20 21 16 13 14 20 27 23 26 27 26 24 30 28 23 9 14 18 22 18 25 19 17 21 17 20 15 16 18 16 14 8 11 15 20 19 16 13 14 16 12 14 17 10 6 13 16 14 12 13 9 7 17 16 10 5 4 3 7 10 12 11 18 12 19 19 13 15 26 23 23 23 22 18
18 19 19 21 22 22 25 22 23 19 17 19 16 22 16 19 18 14 13 15 18 19 23 26 26 26 28 26 17 11 13 14 15 23 19 26 20 18 18 20 15 18 17 17 18 15 17 15 18 17 17 15 14 11 13 6 4 3 4 6 8 7 15 13 13 16 10 5 8 7 4 7 5 16 19 16 14 17 11 10 15 5 18 26 25 20 24 25
18 18 19 21 21 24 23 25 15 15 10 11 20 24 22 22 20 10 8 13 18 25 17 23 23 26 25 20 14 25 18 17 13 13 27 23 22 20 19 23 18 16 16 16 18 19 19 19 15 23 19 19 16 15 14 7 2 5 5 4 7 13 16 17 15 15 15 14 4 10 12 15 11 16 17 15 16 14 13 12 17 20 9 16 21 27 20 23
18 18 19 20 21 22 25 16 7 18 15 20 16 15 18 18 7 9 8 11 13 14 18 23 25 27 29 26 17 19 14 28 16 22 19 24 17 20 20 20 22 15 18 17 19 21 18 13 13 15 22 21 22 18 8 10 5 4 10 7 10 12 13 14 19 17 10 11 8 12 12 17 8 13 11 14 18 22 18 15 21 23 12 14 21 28 24 25
18 18 19 19 19 20 16 9 19 21 13 10 10 7 8 9 7 5 10 10 9 20 22 11 25 20 20 18 18 12 13 23 17 16 16 24 22 17 15 14 16 17 17 17 18 18 19 15 14 15 11 22 5 8 7 12 10 13 5 14 10 16 18 18 20 17 15 10 16 10 8 9 11 11 8 13 12 10 13 22 23 19 12 11 9 23 19 22
18 19 19 19 19 14 15 24 22 17 16 18 21 11 7 11 6 4 7 7 20 21 23 14 11 10 11 19 15 21 14 8 29 24 17 23 15 18 21 15 18 16 16 11 11 6 13 16 13 14 13 5 11 10 4 8 14 8 10 17 19 14 12 8 7 6 7 3 15 8 7 15 13 12 9 14 14 13 16 13 14 18 17 20 25 21 12 14
18 18 19 19 21 23 21 18 12 16 15 16 22 16 13 7 6 6 9 12 18 20 16 19 11 14 11 19 22 18 23 13 17 19 18 19 23 12 21 20 17 11 16 12 11 11 15 12 12 18 8 13 11 5 6 10 13 11 13 13 13 11 4 3 3 7 10 8 15 8 6 18 17 7 9 10 14 9 6 16 12 21 20 21 19 19 20 15
18 17 18 19 20 16 7 12 20 22 19 21 21 21 10 5 4 8 9 13 14 14 18 12 14 18 16 23 19 20 23 15 11 22 23 24 17 10 16 8 18 18 16 19 20 18 15 12 11 16 15 17 15 14 9 10 14 6 16 16 15 15 13 7 9 10 13 17 8 5 7 8 18 7 11 7 6 8 2 7 15 20 22 20 19 20 20 20
19 19 17 16 17 13 18 16 21 17 21 22 17 11 7 5 11 8 8 19 16 15 16 15 18 19 21 20 18 20 21 17 14 19 21 22 18 14 11 15 13 14 11 10 15 20 22 15 16 10 9 10 10 12 15 13 11 11 11 8 4 11 7 6 7 5 15 20 8 8 10 10 16 8 10 10 13 16 15 17 21 23 24 24 20 18 18 17
19 19 19 20 20 18 16 13 7 20 21 21 11 5 5 8 8 11 16 11 19 20 17 18 20 25 23 20 16 25 24 18 11 25 18 20 11 18 15 11 14 12 11 6 13 17 20 15 8 7 14 21 10 8 4 14 15 4 3 4 3 7 6 9 12 15 17 22 10 11 17 16 14 4 7 12 16 19 20 22 22 18 19 21 25 22 18 17
16 18 25 25 19 20 27 29 24 24 21 20 9 4 8 8 13 16 21 8 11 20 21 20 24 20 20 21 21 25 21 19 16 18 11 21 12 15 14 19 10 15 9 7 9 6 12 11 12 18 13 9 11 8 7 8 11 8 9 7 8 9 9 11 10 16 12 12 12 11 6 14 10 6 6 11 12 14 16 19 15 14 12 13 15 18 17 17
19 21 26 18 20 24 21 16 20 19 17 15 6 8 7 8 14 12 19 20 10 16 16 24 27 19 24 26 19 24 21 18 22 25 20 16 19 11 18 20 17 14 15 2 16 9 8 16 19 14 15 12 17 15 10 10 9 20 15 15 14 12 16 13 12 15 17 13 2 5 5 9 4 8 7 9 10 12 15 15 15 16 14 11 14 21 21 19
22 27 24 23 24 28 25 22 20 19 15 10 7 11 11 18 9 10 18 18 19 13 10 18 17 7 12 16 12 22 21 20 21 20 20 14 16 13 15 17 21 18 13 10 10 13 15 16 11 22 10 19 18 19 17 15 18 9 17 12 9 15 11 15 9 3 4 5 8 7 8 7 11 9 5 11 15 18 19 18 16 16 15 16 21 21 21 20
21 17 14 16 14 15 23 22 19 17 14 9 10 12 17 16 9 8 10 19 12 14 17 16 8 10 8 10 15 18 21 11 23 18 19 17 15 19 14 15 25 21 14 19 9 12 9 14 11 21 20 10 20 18 21 11 14 11 17 18 18 9 8 11 14 12 6 5 11 6 8 9 6 9 12 12 18 18 20 20 20 19 20 23 24 22 22 23
18 19 14 14 22 16 18 20 19 16 11 11 9 13 16 21 21 20 8 15 15 16 13 11 14 12 8 12 11 15 14 11 18 15 12 20 18 17 18 16 16 22 22 11 11 11 7 12 4 11 15 21 16 19 15 19 20 18 11 13 14 15 13 15 14 9 9 12 12 9 9 4 4 11 16 12 15 18 17 18 17 15 16 18 18 20 19 18
19 18 20 23 21 18 20 21 17 11 13 11 13 11 12 22 19 12 11 11 16 6 7 4 6 15 11 10 11 12 17 9 9 11 7 21 11 8 10 20 21 20 22 20 16 9 15 12 11 15 15 12 18 15 14 14 12 12 19 4 5 10 14 11 14 7 5 8 9 8 8 9 10 6 12 17 21 16 15 14 17 19 18 15 15 15 17 12
16 13 16 14 18 21 21 21 14 14 9 13 11 11 16 18 21 7 15 13 9 13 5 5 10 10 13 6 7 16 21 16 15 9 11 7 12 10 10 15 7 16 16 22 24 13 7 7 13 11 17 10 11 15 9 9 14 14 10 16 5 11 6 5 13 7 11 6 3 7 12 6 9 8 13 15 19 17 15 15 16 15 13 14 15 13 9 7
12 9 9 7 15 23 20 16 11 10 13 11 10 20 10 17 17 15 9 8 9 5 6 10 11 11 11 9 15 9 6 16 13 10 10 5 8 7 23 21 18 20 21 14 12 11 13 8 13 13 9 10 14 18 12 7 7 15 12 12 8 12 7 7 9 8 9 11 10 9 5 5 9 13 17 17 16 13 12 12 12 9 12 15 16 16 17 20
11 10 14 9 17 19 17 12 14 17 16 11 16 21 21 20 15 13 8 5 11 7 9 10 14 11 17 16 17 13 7 15 6 10 8 7 8 7 13 17 17 16 16 19 17 23 14 15 17 11 13 7 7 14 8 12 7 7 16 15 12 5 8 10 18 10 15 11 10 7 7 8 8 15 16 17 17 15 12 11 11 12 12 14 17 18 22 20
10 9 13 9 15 16 16 14 16 11 15 13 16 16 14 9 7 11 5 6 7 10 10 10 10 9 10 12 10 14 13 11 10 6 16 12 11 14 15 16 13 10 15 7 8 7 6 7 7 6 10 8 8 8 17 15 5 13 16 12 16 12 9 10 12 9 5 8 7 9 17 3 9 10 11 13 21 19 16 14 14 14 16 20 21 20 19 21
13 8 9 18 13 17 13 8 9 13 14 17 16 21 14 11 10 12 14 8 10 9 8 7 8 9 7 8 12 15 11 12 14 10 15 11 11 12 18 20 18 17 8 11 7 11 11 11 4 4 5 8 9 12 11 6 9 13 18 23 21 13 8 8 10 8 13 4 10 5 7 7 10 12 14 11 14 13 18 17 16 14 16 19 19 20 22 22
7 7 12 10 8 14 9 10 9 7 12 13 14 17 8 13 6 13 10 7 10 14 6 4 9 5 12 8 7 10 9 9 12 13 15 10 10 12 12 13 20 18 14 4 8 10 13 10 7 3 5 13 15 17 17 18 27 15 12 19 17 16 16 5 9 15 12 13 13 15 11 7 10 14 15 15 14 16 17 18 18 19 16 16 17 18 19 21
6 5 7 9 10 8 12 7 9 3 7 13 10 10 9 10 7 10 9 9 9 10 10 7 10 5 11 7 13 11 10 10 10 15 19 9 7 9 13 14 11 8 12 9 9 6 10 4 7 5 6 6 7 8 8 13 16 21 16 20 15 17 13 11 7 7 10 12 11 7 9 12 16 16 18 17 16 15 17 16 16 17 15 18 19 21 22 21
3 8 9 10 12 7 11 10 13 13 13 10 6 7 11 4 6 4 10 15 8 8 9 12 6 10 16 10 5 8 11 6 9 7 7 6 4 11 16 13 13 13 8 10 8 9 6 4 7 6 8 9 5 5 7 8 14 20 18 16 16 13 12 9 12 10 8 5 13 12 10 15 15 16 17 18 17 16 16 18 20 18 19 20 19 20 21 20
10 6 10 6 7 10 11 10 13 13 12 8 7 9 11 10 3 6 5 6 7 11 8 6 8 5 12 13 4 10 12 13 17 18 13 14 11 11 13 11 10 9 6 7 7 7 6 8 5 8 6 6 5 11 11 19 15 15 15 13 15 15 15 19 12 5 3 9 6 7 9 11 12 15 16 17 16 16 16 17 17 17 18 20 20 19 18 21
8 8 7 5 8 10 10 13 18 18 19 14 5 6 7 7 5 7 6 7 9 7 7 10 10 11 9 9 5 5 6 9 12 10 16 15 9 8 13 7 6 7 12 10 8 8 4 5 4 3 2 2 5 12 19 21 19 16 16 15 16 15 18 19 11 11 3 7 14 11 15 15 13 15 16 17 16 16 17 18 17 16 18 19 19 20 21 22
5 9 10 8 9 9 18 13 13 13 9 8 7 5 7 6 8 12 5 6 14 9 6 4 8 10 13 15 9 7 3 4 6 9 9 5 7 6 8 9 11 11 9 4 5 6 7 3 5 2 3 2 3 13 17 23 21 22 23 21 17 18 17 16 17 17 19 18 18 20 21 20 14 15 16 16 14 15 14 14 17 19 19 19 19 20 20 21
6 7 9 9 10 17 13 11 8 5 3 7 4 5 8 7 4 9 10 5 5 8 13 6 7 8 8 15 16 8 9 6 6 8 8 3 4 5 4 4 5 6 5 2 4 4 10 6 6 4 4 4 14 20 20 20 21 22 19 20 19 16 17 17 18 18 14 13 15 17 17 15 13 14 16 15 15 13 16 18 18 18 19 20 19 19 19 20
10 8 7 8 13 19 18 5 6 5 8 3 4 6 5 10 4 9 10 19 10 7 7 7 11 15 10 8 8 9 8 8 2 3 4 3 7 5 6 6 9 4 3 3 2 2 4 6 4 4 4 7 14 20 19 20 22 23 19 19 22 18 15 16 20 13 10 10 13 14 13 9 10 13 15 15 16 18 18 17 18 18 18 18 19 18 18 18
12 15 14 16 16 14 5 9 4 6 6 7 8 10 6 8 11 8 8 12 8 11 6 9 13 7 10 6 8 12 13 9 9 12 11 12 4 9 13 7 14 13 11 3 5 5 7 5 5 6 6 6 8 18 16 11 9 10 14 14 15 11 14 16 19 21 20 9 14 12 11 12 12 12 16 16 15 17 17 17 15 16 17 19 18 17 18 19
Wind_Speed
11 11 11 11 12 12 12 12 12 12 12 11 12 12 12 12 12 13 13 14 14 15 15 16 17 17 17 18 19 19 18 10 13 8 7 15 8 6 6 6 13 13 9 3 3 3 5 5 7 8 7 5 3 5 6 7 5 3 4 4 8 7 7 7 3 1 1 2 3 4 3 5 5 5 0 0 2 4 8 14 9 11 8 10 12 14 16 14
11 12 12 12 12 13 13 13 14 13 13 12 12 12 13 13 13 13 13 14 15 16 16 16 17 18 18 18 19 19 14 11 12 13 18 12 11 11 8 12 12 12 7 3 7 7 6 7 8 9 7 5 3 5 4 2 5 4 2 4 10 3 7 4 3 1 2 1 2 1 6 3 1 2 2 3 2 2 7 8 16 13 12 12 12 14 15 12
11 11 12 12 12 12 13 13 14 14 13 13 12 12 13 13 13 13 14 14 15 15 16 17 18 18 19 18 18 17 13 9 9 12 18 19 21 11 11 12 12 11 9 5 8 8 9 10 11 10 7 6 5 8 8 4 6 5 3 6 8 9 9 11 2 5 6 5 7 5 2 0 2 4 2 2 5 7 5 7 8 14 11 10 11 11 13 13
11 11 12 12 12 13 13 13 14 14 14 14 13 12 13 13 13 13 14 14 15 15 16 16 18 18 19 19 18 13 9 9 6 7 3 6 18 14 12 11 11 10 5 5 6 9 8 11 9 10 5 8 5 9 6 4 6 3 5 6 5 3 5 6 4 5 6 6 5 4 6 7 5 1 1 4 7 4 8 9 12 11 12 13 12 11 10 11
12 12 12 12 13 13 13 14 14 15 15 15 13 12 12 13 12 13 13 14 14 15 16 17 17 18 19 19 17 8 8 4 2 3 1 9 15 14 12 11 11 7 8 2 3 9 10 10 9 8 6 4 7 5 7 7 8 2 9 12 10 10 10 7 2 6 6 6 1 1 4 4 5 2 2 2 6 4 3 11 14 14 13 14 13 11 9 9
12 12 13 13 13 13 14 14 14 15 15 15 14 13 13 13 13 13 13 13 14 15 16 17 17 18 19 20 12 6 2 2 2 1 6 7 12 12 10 9 9 5 5 3 5 4 7 8 9 5 4 4 4 5 4 6 5 6 7 6 6 6 6 6 3 2 3 3 1 3 1 5 2 1 3 2 4 3 10 13 14 13 11 10 10 10 8 10
12 13 13 14 14 14 13 14 14 15 15 16 15 14 14 13 13 13 13 13 14 15 15 16 17 18 18 17 8 4 4 10 7 3 9 6 7 10 10 8 6 4 5 5 7 6 6 9 7 5 3 4 7 9 11 8 8 5 5 4 7 7 10 9 7 7 5 5 0 0 4 2 3 3 3 3 7 5 9 10 12 10 10 13 13 9 11 11
13 13 13 13 14 15 15 14 14 15 16 16 16 15 14 14 13 13 13 14 14 15 15 16 16 17 16 11 5 3 4 9 14 7 8 7 6 9 10 6 6 6 6 8 7 10 10 8 8 4 5 6 3 8 7 8 7 8 8 8 9 9 6 5 3 3 1 2 2 3 4 6 4 3 1 8 4 10 8 9 11 10 9 9 10 8 10 10
13 13 14 14 14 15 16 15 14 15 16 17 17 15 15 14 14 13 14 14 15 15 15 15 16 14 13 5 2 6 7 11 11 7 9 7 7 6 9 7 6 7 5 6 8 10 7 5 8 6 4 9 10 12 4 5 6 5 5 4 4 6 5 4 5 5 2 1 1 0 4 4 7 7 4 7 6 4 11 12 10 12 11 11 11 10 11 10
13 13 14 14 14 15 16 16 15 15 16 17 17 16 15 15 14 14 14 14 15 15 15 15 14 13 9 4 4 3 9 6 8 10 10 9 8 8 8 7 10 7 6 7 9 9 9 4 8 5 8 10 8 7 8 8 6 8 9 8 10 9 6 5 4 3 4 3 4 6 4 5 7 5 5 5 8 8 12 13 9 10 12 11 8 9 8 11
13 13 14 14 15 15 16 17 16 15 16 17 17 16 16 15 15 15 14 15 15 15 15 15 12 8 6 5 4 7 6 4 5 9 12 11 10 8 9 9 9 8 7 7 9 10 10 12 6 3 4 2 3 5 5 4 5 6 2 3 6 5 4 4 5 5 1 2 2 0 4 5 6 1 6 7 7 8 13 15 12 9 11 9 9 6 6 7
13 13 13 14 15 15 16 17 17 16 17 18 18 17 16 15 15 14 15 15 16 15 14 11 8 4 6 6 7 10 9 2 9 9 10 11 7 9 8 9 11 8 10 9 10 11 11 9 5 3 3 3 2 4 5 8 6 5 5 5 4 4 5 4 6 5 1 3 3 2 3 4 4 8 10 7 6 6 9 14 12 10 9 10 9 8 6 7
13 13 14 14 15 15 16 17 18 18 17 18 19 18 17 16 16 15 14 15 13 14 13 10 7 4 3 4 11 18 17 11 9 7 8 8 5 6 7 7 12 10 11 11 9 7 5 3 3 4 4 4 2 2 5 10 4 5 4 2 5 5 5 8 6 7 5 3 4 5 5 7 8 10 9 9 7 8 3 16 13 10 10 9 9 8 7 5
13 13 13 14 15 15 16 17 18 18 18 19 19 19 17 16 16 15 15 15 16 15 12 9 4 4 3 7 8 6 9 11 12 8 10 8 7 7 9 7 11 11 10 12 10 3 3 4 1 3 4 5 4 9 12 4 4 1 2 3 4 3 9 8 5 7 10 7 11 6 3 8 6 7 6 7 9 8 6 13 12 10 9 10 10 9 8 7
13 13 13 14 15 15 16 18 18 19 19 18 20 19 18 18 17 16 16 15 14 11 9 5 4 3 2 9 9 19 23 13 11 8 5 9 8 6 9 7 8 10 9 6 3 3 1 5 3 1 3 3 4 6 5 4 2 3 2 5 2 6 11 9 7 8 13 4 7 8 4 9 8 8 10 6 8 9 6 13 11 11 9 8 9 8 7 5
13 14 14 14 14 15 16 17 19 19 19 20 20 20 20 19 17 16 16 14 14 11 6 4 6 6 4 9 6 7 2 2 3 6 6 7 9 8 9 8 5 6 3 2 1 3 1 2 1 1 4 5 6 4 6 4 4 2 4 3 4 5 12 6 8 10 17 5 10 12 4 5 6 8 10 12 11 14 7 13 9 11 8 6 5 6 6 5
14 14 14 14 15 16 16 17 18 19 20 19 21 21 20 20 17 14 14 12 7 5 5 3 5 5 1 3 8 5 7 8 3 4 5 7 8 7 8 4 4 4 2 2 3 2 1 2 1 3 2 4 2 3 4 5 5 5 4 7 7 7 5 5 9 14 16 6 5 5 2 6 11 9 13 11 10 15 9 11 12 11 10 9 7 6 8 6
14 14 14 15 15 15 16 17 18 19 20 20 19 21 19 19 13 9 9 7 5 6 6 6 4 2 11 8 6 9 8 5 8 6 6 6 8 6 7 4 3 4 4 4 3 4 2 2 2 3 1 3 4 3 6 7 7 6 4 6 6 8 10 8 5 2 11 5 10 5 5 8 11 10 9 2 13 9 5 7 14 11 10 8 5 6 6 7
14 14 15 15 15 16 16 17 18 19 19 19 20 21 21 11 5 4 3 3 3 1 1 4 5 5 1 7 16 8 7 9 7 7 8 8 7 4 5 3 4 6 4 4 2 6 2 2 3 3 5 4 7 8 6 7 8 10 8 7 7 6 6 5 9 7 12 6 8 9 5 8 10 10 5 3 4 8 4 3 10 12 12 8 7 6 4 7
14 14 14 15 15 16 16 17 18 19 18 13 11 9 1 2 2 1 2 6 8 8 5 5 12 6 12 12 5 10 9 11 8 7 6 6 6 6 6 7 5 4 4 5 4 8 3 5 5 7 7 7 7 9 9 9 11 12 9 4 4 4 7 13 1 15 7 7 5 5 7 5 4 6 7 1 3 2 6 10 5 10 10 10 9 8 8 8
15 15 15 15 15 16 16 16 16 16 16 9 10 6 2 1 4 2 5 8 14 15 17 12 14 14 12 9 6 4 11 8 4 8 8 6 4 3 4 6 5 6 6 7 6 3 5 6 8 7 10 10 10 8 9 11 11 10 7 6 6 5 6 8 1 8 4 5 2 3 6 2 4 5 8 8 3 4 5 5 8 9 12 13 13 10 11 6
15 15 15 15 16 17 17 17 16 17 11 6 5 5 6 8 4 5 2 5 10 18 17 18 12 14 16 17 17 7 5 6 7 11 6 11 5 7 3 5 6 8 6 5 5 3 5 8 8 11 10 10 11 8 9 12 10 8 4 4 6 5 5 8 5 12 2 1 4 3 1 1 3 5 7 9 6 5 5 8 7 7 12 13 12 11 6 5
15 15 15 15 17 18 18 19 15 16 9 4 5 8 7 8 9 5 4 6 11 10 15 16 14 15 17 14 11 6 9 8 8 9 8 10 6 10 7 8 6 7 7 8 7 4 4 8 13 11 9 8 8 10 7 9 9 6 4 3 8 7 3 5 5 1 3 2 4 3 3 1 2 4 7 6 9 6 9 8 8 7 17 14 15 15 13 12
14 15 15 16 17 17 19 17 18 12 7 10 9 12 10 7 9 7 3 3 6 9 12 14 15 13 16 12 4 5 4 4 7 12 8 10 8 10 4 12 8 7 8 11 11 7 9 9 10 9 10 9 8 7 8 4 3 1 1 0 4 3 5 5 5 2 2 2 3 4 2 3 1 4 6 9 7 8 7 5 6 3 12 13 13 11 14 16
14 14 15 16 16 19 18 20 8 6 5 7 10 15 14 12 11 3 2 3 4 8 7 10 9 11 12 10 3 7 6 4 4 3 11 13 10 7 7 6 5 8 9 10 12 11 12 11 10 15 12 12 10 8 8 4 2 0 1 1 2 7 10 11 10 8 6 7 2 5 2 3 3 6 9 9 7 7 7 5 8 10 6 11 11 12 11 12
14 14 15 15 17 18 19 8 2 8 8 7 8 9 9 10 2 6 2 1 5 4 5 5 7 8 8 11 6 7 8 9 7 6 8 11 9 8 4 6 5 7 12 10 9 5 8 6 7 9 14 12 14 10 5 6 3 1 2 2 5 7 8 8 12 7 3 2 3 2 4 4 3 6 5 5 7 10 8 6 9 11 8 9 14 14 13 13
14 14 15 15 15 16 7 2 9 11 6 2 3 3 4 5 4 2 1 1 2 5 7 2 11 1 3 9 8 6 5 7 7 8 7 11 11 7 5 7 5 5 6 4 3 4 7 9 9 10 7 13 1 5 2 8 5 2 1 6 4 7 9 9 10 9 6 1 4 2 2 2 2 5 3 4 4 6 6 11 15 12 4 6 2 8 5 8
14 15 15 15 15 10 6 8 11 7 8 7 12 8 3 6 4 1 1 0 3 6 6 2 3 1 1 10 8 7 7 2 9 10 8 12 7 7 6 6 7 10 8 4 7 3 7 6 8 7 4 1 4 3 3 5 3 2 6 11 12 8 8 4 2 4 3 1 6 5 4 3 3 4 4 6 7 9 7 7 10 11 10 11 11 6 4 7
14 15 15 15 16 18 11 7 6 8 6 8 13 10 6 4 2 2 1 1 1 2 2 5 5 4 1 9 8 6 11 4 6 7 6 10 12 2 8 11 8 5 8 7 5 3 4 7 8 11 3 7 3 2 4 5 4 5 7 6 4 5 1 2 2 4 5 2 5 5 1 5 6 2 4 4 6 5 1 10 8 12 13 15 12 12 14 11
15 14 15 15 13 7 2 4 9 11 9 12 12 13 6 2 1 2 3 4 2 3 5 2 1 8 7 11 6 9 12 6 4 7 8 8 9 4 3 2 8 9 7 5 9 9 6 5 6 4 5 5 7 7 2 4 7 3 10 9 6 5 7 1 2 1 4 3 2 3 4 3 5 2 6 3 2 2 1 4 9 12 13 13 12 12 12 12
15 15 14 13 6 5 7 7 10 7 9 10 9 6 2 1 1 1 2 4 2 4 4 3 6 9 10 11 6 9 11 9 3 9 7 8 6 4 1 5 3 4 2 3 4 10 11 5 3 1 2 2 6 5 9 4 3 6 2 3 0 4 3 3 3 2 2 4 3 4 5 3 5 3 6 4 8 11 10 9 7 8 10 10 10 9 10 11
15 15 15 9 9 7 5 6 3 9 9 12 8 2 1 2 0 3 4 4 1 4 7 5 8 9 11 10 6 9 8 8 4 10 8 8 6 5 4 4 3 3 5 2 6 7 11 7 2 1 1 7 3 4 0 7 8 2 2 2 1 1 2 1 1 3 4 6 4 6 10 6 4 2 0 6 8 12 10 8 7 7 9 9 10 10 8 9
13 14 19 14 11 9 14 14 13 11 12 13 5 1 1 1 2 6 6 3 2 9 5 11 12 11 11 10 8 12 11 8 4 8 4 8 4 8 6 9 3 5 2 3 3 1 4 3 3 6 4 2 6 3 1 2 3 2 2 2 3 1 0 2 3 3 3 3 7 6 1 2 2 1 2 5 7 9 9 8 8 9 8 9 10 9 10 11
15 16 11 9 9 11 9 7 8 10 10 8 1 2 1 1 3 5 9 7 3 3 8 9 14 13 13 9 9 9 9 8 12 6 7 5 8 4 6 11 9 4 4 1 4 3 1 4 6 2 3 2 1 6 6 4 5 8 6 7 6 4 2 3 3 5 8 6 1 4 2 1 2 0 2 4 5 7 8 9 9 10 9 7 9 13 14 13
18 18 13 10 10 13 14 12 9 10 6 5 2 2 3 5 2 2 5 4 6 7 2 9 9 1 7 8 5 12 10 5 11 9 9 6 7 4 7 7 11 7 3 1 2 0 5 6 4 11 5 8 7 5 3 4 5 3 6 6 4 6 4 5 3 0 0 2 2 2 1 2 4 2 3 6 10 12 12 12 10 10 9 10 12 12 12 11
15 7 6 5 4 6 12 10 10 8 6 3 2 2 6 3 2 2 2 6 6 1 5 7 5 3 1 2 4 5 13 4 14 7 7 8 8 8 5 4 9 12 4 5 2 2 2 4 7 11 13 6 11 9 8 5 3 3 6 8 9 6 3 1 4 4 5 3 3 2 0 3 3 3 8 8 13 12 12 12 10 9 7 7 8 7 8 7
7 8 5 5 10 7 9 10 8 8 5 3 1 3 3 4 11 11 3 6 2 8 6 5 0 0 2 3 3 7 6 3 9 5 3 9 5 9 8 6 10 12 12 5 3 3 2 5 1 2 9 7 7 12 10 11 7 1 3 7 6 7 3 3 4 1 1 3 3 4 4 2 1 1 7 8 10 12 11 9 8 9 9 11 8 7 8 10
8 7 8 9 11 8 10 11 10 6 4 2 3 5 4 7 9 7 4 6 9 4 3 2 1 7 2 3 3 3 5 3 4 4 2 11 1 2 2 4 13 10 13 11 4 2 5 3 3 7 7 5 10 9 8 7 8 7 9 2 1 1 5 3 1 1 0 0 1 1 5 2 3 0 6 11 11 9 8 10 12 13 11 10 10 10 11 9
7 4 5 7 8 11 12 12 7 5 2 3 2 3 5 8 8 1 5 4 1 5 3 1 1 1 3 2 2 3 11 4 6 4 3 1 2 3 4 8 3 2 3 11 8 3 1 2 5 2 10 3 4 7 2 3 4 6 4 5 2 5 2 1 3 2 5 2 1 3 7 0 4 3 7 7 9 8 7 9 10 9 9 9 10 8 6 5
5 2 3 3 6 14 12 9 5 3 3 4 4 5 4 7 6 3 5 5 2 2 1 4 7 4 4 3 3 2 1 6 7 2 5 2 3 3 10 10 6 7 8 9 6 1 4 3 4 5 2 5 4 3 5 4 3 4 4 4 2 1 3 2 1 2 2 2 3 2 2 1 2 4 8 9 8 7 7 7 6 4 8 10 10 10 11 13
4 1 4 4 8 11 10 5 3 6 4 4 6 8 9 7 4 6 5 2 2 2 0 4 3 3 4 6 9 8 1 6 2 3 3 2 3 0 6 8 5 4 3 9 9 5 3 1 7 3 3 1 4 6 4 4 2 2 7 7 6 2 1 5 7 1 3 2 2 2 2 1 3 6 8 10 10 9 7 7 7 8 8 10 10 12 14 12
3 0 4 4 9 10 8 5 3 3 3 5 4 3 4 3 2 7 0 3 3 2 2 0 4 3 3 5 5 7 4 5 5 3 8 6 6 6 6 10 9 4 5 2 1 2 2 2 1 0 3 4 4 3 10 7 2 5 10 6 5 2 0 1 3 3 1 2 4 4 7 1 3 5 5 7 10 11 9 9 9 9 10 11 10 11 11 12
3 3 5 7 2 9 5 2 3 3 4 4 9 13 8 5 4 5 5 2 2 1 1 0 2 3 2 3 5 6 6 3 8 4 5 3 3 6 4 11 10 9 4 4 4 5 5 2 2 1 2 5 5 8 7 5 6 8 8 9 9 2 2 4 2 3 4 1 5 1 3 1 5 7 8 6 4 5 7 10 9 8 8 11 13 14 14 14
1 1 3 6 4 5 2 2 2 5 5 5 7 9 4 4 2 6 2 2 2 2 1 1 5 2 2 4 1 3 5 2 4 7 5 3 3 8 8 8 11 7 6 1 2 5 2 2 2 1 2 6 8 8 8 10 12 5 5 6 7 4 5 1 4 4 5 7 3 6 3 3 5 8 8 9 8 10 10 10 10 10 9 10 11 11 12 12
2 1 1 4 2 2 4 1 2 1 2 4 4 5 2 2 2 1 4 4 3 4 3 1 2 1 2 2 6 6 6 2 1 6 8 3 2 3 8 10 8 5 7 4 6 2 4 1 3 2 2 2 0 0 3 6 7 2 6 13 10 9 5 5 3 3 5 4 5 3 3 5 9 10 11 10 10 9 10 10 11 10 10 10 10 10 11 12
1 1 0 1 1 1 4 1 3 3 5 6 2 3 3 1 2 2 7 6 5 1 3 3 4 5 8 1 2 2 4 3 5 2 2 1 1 4 6 9 8 4 5 6 4 2 1 1 3 3 4 5 3 2 2 2 2 8 11 11 10 7 8 5 6 5 3 3 7 2 5 8 9 10 9 10 10 10 10 11 12 11 12 11 12 11 11 11
2 1 2 1 1 3 4 3 4 3 3 4 1 1 3 3 1 2 4 1 4 6 2 1 3 1 2 6 2 5 7 8 8 11 8 7 5 2 5 6 5 5 4 3 5 2 3 4 3 5 4 4 4 8 7 12 8 6 6 7 10 10 6 12 5 1 1 5 3 2 6 6 7 9 9 9 10 10 9 9 10 10 10 11 11 11 13 13
1 2 1 1 0 3 2 5 8 5 11 8 1 2 3 2 1 1 2 1 6 3 2 1 2 2 2 4 3 1 2 4 7 2 3 6 4 3 3 4 2 4 8 4 6 3 1 2 0 2 0 2 3 9 13 12 12 9 11 8 11 10 12 10 5 6 1 2 6 4 7 9 7 9 9 9 9 9 9 10 10 10 11 12 12 13 13 14
1 2 2 3 0 2 9 7 5 8 6 1 1 1 3 1 3 4 1 1 2 1 1 1 4 4 6 10 2 2 1 2 3 4 1 2 4 2 3 4 7 5 3 2 2 2 2 0 2 1 2 1 2 10 12 15 9 13 13 13 11 11 11 10 10 11 12 12 11 13 13 12 8 7 8 9 8 9 8 8 9 12 12 11 11 12 13 13
1 1 1 3 1 5 8 7 4 3 1 3 1 1 1 1 2 5 2 2 0 2 7 3 3 2 5 7 7 3 4 4 4 4 3 1 2 2 1 1 1 3 2 1 0 2 4 1 4 2 2 1 10 14 13 13 13 13 13 12 11 7 11 11 10 11 8 8 10 11 11 9 7 8 8 9 9 8 8 11 11 10 10 11 12 12 12 12
4 3 1 2 6 5 9 2 3 3 3 0 1 1 2 4 1 4 5 6 4 3 2 3 8 10 6 5 6 6 4 5 1 2 2 1 3 2 2 2 4 1 1 1 1 0 1 1 1 2 2 3 4 13 12 14 15 15 12 12 11 9 8 9 9 7 6 3 8 9 6 4 4 7 8 9 10 11 11 10 10 9 11 11 11 11 11 11
2 5 5 1 2 9 2 4 1 3 2 3 3 2 1 3 3 4 2 4 3 2 2 6 6 3 4 4 6 6 5 6 6 8 6 7 2 1 3 3 8 7 3 1 1 0 2 2 1 3 3 2 3 12 11 7 5 5 8 8 8 7 9 9 11 13 11 4 5 4 4 4 5 6 10 10 10 10 11 9 9 10 10 11 11 10 11 12
Wind_Direction
325 327 327 326 328 328 328 327 327 328 328 331 332 331 332 334 332 331 329 331 329 328 328 328 327 326 328 329 329 328 327 319 308 299 255 239 236 185 125 141 159 164 169 151 228 246 181 208 229 238 248 234 228 245 249 265 250 221 212 210 247 240 258 252 266 103 161 67 46 55 326 341 51 341 108 232 192 214 101 97 94 72 76 105 123 134 139 145
323 326 326 326 327 328 327 326 327 326 327 327 330 330 331 330 331 330 331 330 330 328 329 328 326 328 328 329 330 328 329 305 290 275 242 242 222 175 145 141 147 163 156 162 208 218 198 204 222 221 225 230 207 229 197 239 227 207 222 193 241 224 258 273 293 68 90 118 119 60 56 1 101 328 24 350 344 214 118 91 100 89 87 98 116 130 136 148
324 324 323 324 325 325 327 325 324 324 324 325 327 330 330 328 330 331 331 329 329 329 328 327 327 328 328 328 328 332 327 305 281 260 260 231 221 183 161 156 161 160 168 180 213 215 212 206 203 210 211 236 215 236 202 230 209 216 196 233 248 235 252 273 283 93 64 26 28 24 88 253 330 351 279 25 321 347 112 114 89 114 126 120 135 142 143 153
322 322 322 323 324 325 325 324 323 323 322 322 326 329 327 328 329 330 330 330 327 327 327 326 326 327 326 326 328 328 312 284 272 242 317 231 177 162 162 162 161 174 199 223 226 227 237 239 223 199 208 215 239 235 217 213 209 178 214 237 252 297 308 287 357 54 74 49 22 10 351 336 314 334 56 348 339 32 109 148 131 130 137 147 153 148 149 147
321 321 321 322 322 323 323 323 323 322 322 321 323 325 324 325 328 328 328 326 326 325 326 326 326 324 325 324 322 324 310 359 275 34 2 125 137 153 163 161 160 169 192 215 285 282 278 274 252 206 211 233 236 243 235 204 194 145 213 227 236 257 266 283 78 99 85 96 60 311 289 284 289 355 73 216 276 259 196 161 144 147 149 151 155 153 139 125
320 320 319 320 321 321 321 321 322 321 320 319 319 322 323 323 325 327 324 324 324 325 324 325 324 326 325 323 310 294 329 143 8 159 150 150 145 152 147 141 160 172 173 218 241 267 269 257 248 231 204 232 261 250 240 234 173 217 259 254 246 245 269 285 329 98 90 69 83 8 276 316 355 358 313 359 231 179 154 158 155 150 148 137 128 132 123 113
316 318 319 320 320 320 320 318 320 319 319 317 317 320 321 321 323 324 323 323 322 322 321 323 324 326 329 320 280 201 239 279 319 174 159 172 155 132 131 135 141 160 178 201 218 238 244 246 232 224 221 238 245 247 250 219 219 235 256 245 253 251 242 258 282 98 100 103 332 211 347 304 9 349 10 300 290 124 156 156 145 135 138 136 139 143 136 151
317 318 318 319 319 317 317 317 317 319 317 314 314 316 319 318 320 322 321 321 320 319 321 322 323 325 334 335 332 198 202 254 253 182 153 138 137 136 137 139 157 162 181 207 211 220 246 242 227 230 246 204 223 228 249 258 208 215 241 261 277 289 271 282 254 255 22 189 160 239 287 285 310 284 6 281 281 125 150 145 131 130 127 131 132 126 129 148
313 314 315 315 316 315 315 316 316 315 315 312 310 314 315 317 318 320 321 319 318 318 318 319 320 321 324 294 291 319 245 232 216 140 140 152 157 154 167 146 177 173 180 214 233 253 254 230 243 224 214 228 247 259 282 257 251 206 249 239 243 244 277 271 288 283 201 93 148 33 235 254 233 244 245 263 273 120 144 140 139 136 137 142 151 154 148 157
313 314 312 315 316 316 314 314 314 314 312 310 309 310 314 313 315 318 318 316 314 315 316 316 315 320 317 283 269 252 261 123 123 146 160 165 157 170 210 148 169 176 186 214 238 239 245 226 221 219 248 277 276 283 285 278 236 193 220 231 247 261 269 276 270 263 252 209 172 202 222 241 255 177 267 229 244 130 147 145 153 155 145 141 154 162 159 165
314 312 314 313 315 315 314 313 313 313 311 309 307 308 309 312 314 315 316 313 311 311 313 313 312 315 294 268 256 240 263 142 149 154 168 161 159 174 200 157 173 180 205 224 230 232 242 252 239 260 235 235 348 287 273 241 295 317 304 275 280 288 296 309 315 293 355 254 165 156 286 287 283 224 217 232 235 194 151 152 169 166 143 148 157 161 162 174
313 312 311 312 313 314 313 312 312 312 310 308 307 306 308 310 312 314 313 311 307 307 310 310 316 285 261 261 238 235 258 70 174 167 159 156 177 196 205 166 171 194 199 224 230 230 234 244 266 282 223 20 281 289 283 320 300 277 317 308 282 284 278 271 263 279 274 244 166 182 263 265 231 240 252 244 245 228 161 157 159 156 152 149 156 163 168 173
309 312 312 312 312 314 313 312 310 311 309 307 306 306 306 307 309 309 308 304 300 303 304 307 306 251 278 290 232 236 252 276 273 161 142 175 187 203 224 184 177 205 216 225 237 236 257 293 21 344 341 339 288 216 308 287 271 256 270 285 321 307 288 244 231 231 232 229 201 146 266 265 243 238 229 233 227 247 154 159 158 165 155 159 159 166 166 170
306 308 311 312 313 313 314 312 311 308 308 306 305 306 306 305 305 304 300 293 293 295 293 284 265 272 242 248 268 272 242 247 260 183 169 173 191 203 221 216 183 202 225 242 267 357 319 257 15 325 340 287 286 352 330 296 302 225 242 203 219 284 260 239 228 210 219 187 209 148 225 270 257 262 255 224 223 215 207 161 162 151 152 159 165 164 161 163
307 308 310 311 311 313 314 311 309 308 308 307 307 306 307 304 300 296 293 290 288 286 294 302 218 223 191 265 257 258 249 252 251 193 181 167 201 187 222 215 202 210 222 245 314 313 275 349 17 318 260 272 278 281 285 285 277 243 317 298 295 193 261 260 220 195 211 188 166 122 229 257 259 256 267 248 226 224 213 146 159 155 160 168 163 155 145 145
308 308 308 310 311 312 314 311 308 309 308 309 308 307 304 298 291 288 284 281 286 286 270 250 203 215 318 283 259 327 325 186 232 180 190 191 194 209 204 199 199 228 256 285 313 292 313 32 280 215 262 283 278 259 272 322 298 221 180 244 248 211 251 288 238 194 202 181 150 148 193 289 278 256 252 249 222 217 144 153 146 157 156 152 150 120 131 137
307 305 307 309 312 312 313 311 310 308 311 310 312 305 299 286 280 276 277 277 279 238 211 220 154 188 214 231 341 248 208 207 213 204 187 207 195 204 178 192 194 206 235 299 211 296 306 195 123 299 266 251 215 225 255 271 291 290 187 222 223 238 262 263 261 201 187 174 152 121 164 242 263 277 283 300 243 176 121 145 159 162 163 171 154 136 143 128
308 308 307 310 311 313 313 312 310 311 312 314 315 304 290 280 272 277 284 255 220 237 220 246 285 239 268 264 280 219 191 187 203 197 205 189 217 202 172 191 144 221 164 253 231 222 146 244 132 212 256 245 244 245 185 219 209 234 213 222 259 252 247 246 305 138 164 172 141 154 172 253 257 272 297 296 73 95 125 139 163 163 174 163 157 166 160 155
309 308 308 309 311 312 314 312 312 313 314 320 313 295 275 255 259 186 269 173 156 94 350 204 153 161 106 208 219 250 206 176 183 175 194 188 218 217 180 179 164 187 190 178 230 199 155 253 164 243 258 227 230 221 199 226 233 234 215 201 225 245 267 242 220 177 177 165 138 146 191 238 265 269 293 323 132 140 155 203 152 177 170 157 165 177 175 176
308 306 307 309 311 311 315 314 312 313 322 323 336 323 335 88 148 70 213 238 239 220 257 163 203 263 310 298 221 216 215 157 176 195 177 195 178 223 221 174 177 201 180 186 175 197 136 178 201 210 223 232 231 230 238 244 243 258 276 279 238 289 309 274 232 163 166 133 174 181 206 226 255 284 295 270 358 312 189 205 164 163 162 170 168 186 191 192
306 306 306 310 311 314 313 314 311 312 319 322 318 309 238 322 353 98 188 217 220 233 249 250 205 229 247 279 303 191 127 166 205 170 203 157 195 165 210 186 164 197 221 195 199 196 167 174 226 219 218 231 240 227 237 263 272 276 297 312 312 327 283 303 335 184 130 95 260 199 199 236 293 310 307 319 334 213 241 212 212 162 162 171 172 186 191 198
308 308 311 313 314 314 315 312 311 309 314 306 277 260 285 277 262 303 288 276 227 225 235 245 233 240 248 257 263 254 133 154 216 168 190 162 179 178 181 204 177 206 203 225 247 152 195 204 221 224 222 222 238 236 221 225 252 268 254 289 321 292 306 300 297 172 85 78 202 168 114 308 308 300 307 308 281 264 210 198 211 166 162 165 175 175 166 181
308 309 312 314 315 315 315 311 308 311 306 262 224 227 253 251 289 343 332 277 276 235 224 230 233 238 257 258 261 175 174 180 188 186 171 173 151 203 156 198 195 214 188 200 209 178 206 237 218 214 228 231 237 242 231 225 233 239 265 279 259 262 321 304 334 327 329 131 181 103 91 207 286 304 289 268 283 296 280 254 201 188 170 176 174 171 173 185
309 310 312 315 316 318 315 317 307 295 231 216 238 232 246 285 300 316 337 259 297 279 225 219 213 217 239 243 212 220 213 173 201 185 154 173 181 191 210 187 208 210 215 191 210 201 212 220 205 216 233 232 239 241 242 216 249 285 135 192 308 310 278 267 270 291 220 288 137 82 62 342 310 283 280 282 262 280 267 294 304 168 175 176 185 170 174 182
309 311 314 315 319 319 321 315 300 234 226 213 239 246 246 258 272 344 50 290 234 257 214 235 199 205 224 234 230 221 159 280 260 195 162 177 178 155 229 184 210 209 224 207 204 220 239 230 185 202 216 229 235 243 241 147 185 356 298 223 247 296 301 305 314 349 357 353 303 121 329 296 261 236 243 249 276 278 276 254 253 270 163 179 178 185 194 196
310 311 316 316 319 326 317 306 258 345 302 245 237 252 216 228 253 43 13 283 288 259 117 216 148 203 187 201 211 204 149 215 220 240 164 182 183 191 182 233 178 203 210 225 214 206 234 232 229 201 204 217 222 222 217 135 153 82 260 228 227 239 272 291 299 324 341 275 277 121 162 272 302 246 253 271 271 265 276 273 251 250 244 185 172 193 188 196
309 312 315 316 320 329 337 264 355 317 280 276 283 279 22 40 5 8 278 250 318 219 159 5 163 246 205 170 185 141 184 232 193 228 193 177 196 187 210 218 171 243 213 207 221 248 205 227 233 235 210 211 147 210 193 127 123 221 258 274 248 224 236 236 238 242 234 261 267 300 147 214 282 287 265 283 253 233 250 263 252 224 311 356 48 178 188 203
311 311 313 314 315 319 278 298 316 309 255 295 319 341 356 32 357 48 107 334 264 165 140 196 230 11 242 152 157 167 224 146 175 203 205 167 213 168 227 204 212 200 232 223 195 255 188 212 227 250 258 108 179 207 174 141 131 208 205 224 253 238 224 241 239 270 248 36 290 345 13 328 256 265 278 247 272 297 327 7 15 48 59 45 69 94 146 171
309 309 311 314 313 302 273 249 278 269 262 325 311 309 15 3 50 83 165 158 202 104 348 133 294 130 218 151 181 194 228 211 207 163 169 159 199 183 197 241 266 270 220 227 213 257 236 207 203 220 200 179 201 198 148 143 177 224 250 258 270 296 202 138 76 11 349 7 294 311 242 263 285 263 315 284 246 263 66 70 47 56 63 54 38 37 41 32
303 307 309 314 318 299 289 198 228 248 295 298 303 308 326 19 351 57 70 274 182 210 191 87 196 175 193 166 189 191 235 249 226 156 165 160 205 220 273 199 229 247 272 222 230 245 256 205 201 198 188 190 187 211 157 182 233 213 207 230 254 280 270 291 101 72 8 317 234 240 251 196 284 288 238 304 224 184 165 40 44 48 45 50 62 49 27 40
305 303 305 309 293 309 322 282 250 245 269 280 270 297 339 322 139 155 137 242 224 76 110 126 145 170 164 169 185 194 224 247 211 151 169 162 178 204 264 304 270 319 276 293 270 237 247 261 223 224 331 191 167 164 174 238 237 236 181 184 321 352 30 32 349 69 210 273 263 270 294 224 229 309 360 10 46 49 59 62 49 48 56 53 56 73 70 58
305 304 298 294 273 282 262 243 41 344 319 318 310 7 289 95 89 176 208 46 72 173 184 177 181 174 174 179 195 178 203 231 234 162 177 161 152 179 189 198 178 223 300 203 253 224 239 225 174 243 225 253 241 163 202 179 238 248 75 33 106 254 65 327 72 273 224 227 244 232 237 286 255 170 306 35 54 61 64 68 59 44 34 39 45 57 71 80
304 302 296 280 271 252 245 256 300 308 307 305 324 284 149 123 206 236 261 274 224 173 186 170 170 180 178 182 209 179 192 217 151 170 155 154 136 191 181 205 189 158 197 235 248 325 261 247 192 185 242 173 103 84 331 350 227 126 146 151 139 200 119 213 238 197 249 246 231 218 11 228 161 286 332 52 53 84 89 80 68 59 42 24 21 29 53 59
303 301 292 263 254 242 250 256 266 285 303 303 262 249 323 150 245 201 245 249 271 242 269 193 161 184 174 190 203 171 191 208 159 170 172 163 178 181 194 207 231 198 203 280 201 170 335 246 257 224 217 133 129 155 161 194 180 199 170 169 175 160 159 193 192 201 205 215 245 144 96 258 137 246 270 47 63 75 76 67 57 51 52 41 20 19 25 45
304 294 270 267 244 240 236 240 250 258 276 285 256 195 146 222 291 246 233 272 260 238 136 114 151 27 169 200 222 178 174 187 175 157 175 156 190 188 181 194 218 227 204 123 265 13 222 207 227 210 229 151 179 188 200 251 303 241 195 167 136 220 165 224 207 144 259 29 1 338 151 172 135 235 353 37 46 48 48 49 50 45 40 45 40 25 19 21
300 282 248 237 213 231 203 213 224 239 242 258 213 171 222 201 199 216 270 304 289 233 165 85 48 196 234 248 240 277 183 202 169 166 176 186 172 190 185 186 198 205 187 183 184 230 254 284 193 195 212 175 178 157 208 179 186 264 164 181 202 192 177 203 289 245 97 65 254 181 357 25 328 26 28 27 48 45 44 39 35 27 23 59 75 66 36 26
307 310 285 236 224 207 172 184 187 202 214 251 218 235 239 275 247 273 42 323 294 293 32 47 166 68 218 224 253 204 197 167 167 172 175 177 195 187 194 204 183 189 218 160 279 206 146 239 266 67 198 187 180 172 185 180 198 260 315 255 203 185 189 149 213 291 160 166 258 134 208 53 8 276 313 9 43 38 26 24 26 18 18 26 24 36 44 33
318 294 274 263 251 189 163 176 183 188 205 242 241 261 285 278 295 329 29 4 347 346 331 99 285 197 218 230 257 179 134 152 156 130 301 169 318 11 282 222 185 197 200 211 182 263 213 287 291 206 252 205 193 173 189 196 184 170 216 275 120 222 205 258 212 306 164 238 221 242 116 85 72 255 357 16 26 36 24 15 16 14 13 18 17 17 36 37
289 290 303 256 219 166 158 172 184 175 200 225 246 244 236 248 251 291 81 335 259 354 357 341 293 256 271 237 336 189 158 187 155 160 126 178 165 310 41 350 22 325 221 203 201 237 123 127 303 235 183 214 187 128 205 253 210 217 285 296 213 119 161 317 207 196 127 228 78 293 86 309 32 19 37 32 33 32 32 36 26 3 7 11 9 15 46 57
283 253 259 282 133 135 148 157 169 199 225 216 215 227 268 256 231 59 74 38 346 347 316 360 343 323 317 275 12 10 276 166 157 166 124 333 122 261 25 357 17 26 8 34 29 2 246 126 220 290 335 353 253 132 189 176 187 226 205 273 346 241 187 140 195 179 154 178 177 165 52 331 345 45 45 32 41 45 39 46 46 10 17 29 27 16 31 40
227 290 278 274 115 118 124 150 197 207 211 276 277 276 286 301 43 54 47 32 340 290 46 336 3 12 324 358 14 329 83 354 35 95 93 72 79 142 353 356 344 43 2 29 38 10 34 63 197 265 325 358 251 168 170 208 206 170 172 204 208 241 132 208 267 261 186 121 196 111 132 103 30 47 57 51 36 44 31 34 37 46 42 37 25 24 31 34
312 96 255 320 109 126 142 161 243 199 239 240 228 253 277 296 246 101 13 94 254 290 183 266 314 312 320 2 7 330 23 8 353 49 21 78 24 62 355 9 16 61 61 77 267 23 137 235 110 247 215 214 299 181 187 210 81 46 51 340 261 203 159 127 204 268 153 33 71 122 116 169 69 88 69 61 75 68 45 35 46 46 42 41 34 35 33 36
184 236 284 302 212 153 170 260 218 223 236 261 273 266 260 283 341 57 351 153 203 175 307 222 306 358 7 14 6 346 3 39 358 47 170 104 65 9 6 34 17 35 83 5 357 339 333 61 26 314 347 332 337 6 10 45 21 39 20 36 32 47 146 119 71 241 134 334 84 37 81 161 69 82 73 61 39 53 58 59 44 39 47 46 32 25 24 28
323 155 318 288 236 188 220 224 212 233 242 269 266 286 344 350 340 336 253 65 274 129 347 29 342 70 304 347 305 315 32 42 0 96 61 47 49 332 28 50 37 35 40 318 62 282 38 310 107 32 1 341 347 359 359 23 42 33 22 21 4 7 37 140 79 36 75 348 295 124 174 138 80 67 70 64 47 38 33 34 40 34 36 48 43 34 27 27
304 270 175 277 297 229 224 252 309 303 253 252 259 278 281 233 177 33 300 327 16 64 43 354 226 20 297 17 3 9 353 10 87 69 107 72 120 354 28 41 37 64 48 63 26 334 98 315 69 95 120 104 59 59 332 335 339 337 23 350 357 14 5 43 43 14 87 312 32 65 70 91 85 71 60 51 49 37 25 26 30 34 29 47 45 38 31 24
69 40 357 288 240 233 272 252 256 278 311 287 280 269 228 329 30 46 1 337 291 90 59 4 14 29 327 117 32 353 322 357 50 330 85 107 117 45 21 46 21 46 38 25 51 52 100 72 77 126 129 148 174 170 185 168 1 40 343 349 356 6 26 74 101 76 143 149 75 356 134 116 74 57 48 55 51 42 26 22 25 26 28 32 37 33 30 28
1 270 132 211 149 243 266 258 245 245 247 232 184 229 243 191 38 67 27 311 8 34 348 99 340 40 312 31 41 24 357 8 15 25 25 76 58 83 42 53 27 58 352 334 29 54 55 62 57 87 86 101 106 99 88 68 78 32 40 22 4 10 43 70 80 155 147 69 79 249 129 111 77 65 57 53 54 49 37 29 27 24 30 33 32 26 24 24
147 262 330 274 153 212 198 275 234 225 249 244 274 331 304 140 135 122 305 325 11 48 21 49 210 308 297 146 82 38 19 9 29 53 49 22 82 73 69 27 49 16 30 17 27 72 96 98 342 90 6 91 130 113 102 82 69 57 50 47 32 18 28 60 50 356 95 151 177 180 107 104 81 66 60 54 55 56 45 39 35 31 33 35 30 29 26 22
252 335 301 291 89 255 185 215 208 224 219 230 150 268 278 152 177 138 258 125 217 172 236 86 320 347 335 38 58 152 90 63 347 31 51 53 44 46 27 349 7 63 65 7 22 61 67 56 124 117 118 139 147 106 108 101 83 58 41 36 34 36 38 39 41 31 56 71 75 88 82 75 70 66 61 58 50 52 54 48 43 39 36 34 35 34 30 26
207 108 301 335 95 307 293 233 239 159 104 40 50 196 272 75 325 101 202 92 130 4 5 17 288 305 51 53 36 56 67 109 147 60 352 50 20 75 152 169 231 341 50 28 79 11 90 268 152 155 67 68 77 89 89 89 85 72 44 42 33 30 46 37 42 26 34 67 79 79 78 75 61 64 63 58 58 57 51 48 47 43 39 37 39 37 32 30
300 328 29 303 311 277 247 208 188 154 105 118 107 178 283 140 225 251 134 151 131 129 129 282 35 17 13 43 42 22 83 83 92 156 210 110 158 238 141 262 154 160 336 29 23 349 85 228 234 82 96 56 70 103 109 100 90 75 40 22 22 33 36 28 44 8 43 11 130 110 93 103 100 79 64 53 54 50 47 44 47 42 41 42 43 39 36 35
256 246 238 191 266 260 248 194 204 120 125 216 165 148 252 116 231 44 19 353 56 129 141 82 56 72 342 62 72 67 4 24 14 9 357 338 336 281 226 192 172 158 185 141 113 107 170 126 127 122 90 97 182 132 135 131 77 42 16 357 9 66 84 71 43 33 22 12 59 60 86 63 87 78 73 54 54 55 50 34 45 45 40 41 37 35 37 39